Time,TemperatureF,DewpointF,PressureIn,WindDirection,WindDirectionDegrees,WindSpeedMPH,WindSpeedGustMPH,Humidity,HourlyPrecipIn,Conditions,Clouds,dailyrainin,SolarRadiationWatts/m^2,SoftwareType,DateUTC
2013-12-17 00:11:00,17.0,17.0,-100.00,North,-999,0.0,0.0,98,0.00,,,0.00,0.000000,,2013-12-17 08:11:00,
2013-12-17 00:21:00,17.0,17.0,-100.00,North,-999,0.0,0.0,98,0.00,,,0.00,0.000000,,2013-12-17 08:21:00,
2013-12-17 00:32:00,17.0,17.0,-100.00,North,-999,0.0,0.0,98,0.00,,,0.00,0.000000,,2013-12-17 08:32:00,
2013-12-17 00:42:00,17.0,17.0,-100.00,North,-999,0.0,0.0,98,0.00,,,0.00,0.000000,,2013-12-17 08:42:00,
2013-12-17 01:11:00,16.0,16.0,-100.00,North,-999,0.0,0.0,98,0.00,,,0.00,0.000000,,2013-12-17 09:11:00,
2013-12-17 01:22:00,16.0,16.0,-100.00,North,-999,0.0,0.0,98,0.00,,,0.00,0.000000,,2013-12-17 09:22:00,
2013-12-17 01:33:00,16.0,16.0,-100.00,North,-999,0.0,0.0,98,0.00,,,0.00,0.000000,,2013-12-17 09:33:00,
2013-12-17 01:43:00,16.0,16.0,-100.00,North,-999,0.0,0.0,98,0.00,,,0.00,0.000000,,2013-12-17 09:43:00,
2013-12-17 02:13:00,15.0,15.0,-100.00,North,-999,0.0,0.0,98,0.00,,,-99.99,0.000000,,2013-12-17 10:13:00,
2013-12-17 02:23:00,15.0,15.0,-100.00,North,-999,0.0,0.0,98,0.00,,,-99.99,0.000000,,2013-12-17 10:23:00,
2013-12-17 02:33:00,15.0,15.0,-100.00,North,-999,0.0,0.0,98,0.00,,,-99.99,0.000000,,2013-12-17 10:33:00,
2013-12-17 02:43:00,15.0,15.0,-100.00,North,-999,0.0,0.0,98,0.00,,,-99.99,0.000000,,2013-12-17 10:43:00,
2013-12-17 03:11:00,14.0,13.0,-100.00,North,-999,0.0,0.0,97,0.00,,,0.00,0.000000,,2013-12-17 11:11:00,
2013-12-17 03:22:00,14.0,13.0,-100.00,North,-999,0.0,0.0,97,0.00,,,0.00,0.000000,,2013-12-17 11:22:00,
2013-12-17 03:33:00,14.0,13.0,-100.00,North,-999,0.0,0.0,97,0.00,,,0.00,0.000000,,2013-12-17 11:33:00,
2013-12-17 03:42:00,14.0,13.0,-100.00,North,-999,0.0,0.0,97,0.00,,,0.00,0.000000,,2013-12-17 11:42:00,
2013-12-17 04:11:00,13.0,13.0,-100.00,North,-999,0.0,0.0,98,0.00,,,0.00,0.000000,,2013-12-17 12:11:00,
2013-12-17 04:22:00,13.0,13.0,-100.00,North,-999,0.0,0.0,98,0.00,,,0.00,0.000000,,2013-12-17 12:22:00,
2013-12-17 04:32:00,13.0,13.0,-100.00,North,-999,0.0,0.0,98,0.00,,,0.00,0.000000,,2013-12-17 12:32:00,
2013-12-17 04:42:00,13.0,13.0,-100.00,North,-999,0.0,0.0,98,0.00,,,0.00,0.000000,,2013-12-17 12:42:00,
2013-12-17 05:11:00,14.0,13.0,-100.00,North,-999,0.0,0.0,95,0.00,,,0.00,0.000000,,2013-12-17 13:11:00,
2013-12-17 05:21:00,14.0,13.0,-100.00,North,-999,0.0,0.0,95,0.00,,,0.00,0.000000,,2013-12-17 13:21:00,
2013-12-17 05:34:00,14.0,13.0,-100.00,North,-999,0.0,0.0,95,0.00,,,0.00,0.000000,,2013-12-17 13:34:00,
2013-12-17 05:42:00,14.0,13.0,-100.00,North,-999,0.0,0.0,95,0.00,,,0.00,0.000000,,2013-12-17 13:42:00,
2013-12-17 06:11:00,15.0,14.0,-100.00,North,-999,0.0,0.0,95,0.00,,,-99.99,0.000000,,2013-12-17 14:11:00,
2013-12-17 06:21:00,15.0,14.0,-100.00,North,-999,0.0,0.0,95,0.00,,,-99.99,0.000000,,2013-12-17 14:21:00,
2013-12-17 06:32:00,15.0,14.0,-100.00,North,-999,0.0,0.0,95,0.00,,,-99.99,0.000000,,2013-12-17 14:32:00,
2013-12-17 06:42:00,15.0,14.0,-100.00,North,-999,0.0,0.0,95,0.00,,,-99.99,0.000000,,2013-12-17 14:42:00,
2013-12-17 07:21:00,16.0,15.0,-100.00,North,-999,0.0,3.0,96,0.00,,,0.00,0.000000,,2013-12-17 15:21:00,
2013-12-17 07:33:00,16.0,15.0,-100.00,North,-999,0.0,3.0,96,0.00,,,0.00,0.000000,,2013-12-17 15:33:00,
2013-12-17 07:43:00,16.0,15.0,-100.00,North,-999,0.0,3.0,96,0.00,,,0.00,0.000000,,2013-12-17 15:43:00,
2013-12-17 08:23:00,17.0,16.0,-100.00,North,-999,0.0,0.0,97,0.00,,,0.00,11.000000,,2013-12-17 16:23:00,
2013-12-17 08:33:00,17.0,16.0,-100.00,North,-999,0.0,0.0,97,0.00,,,0.00,11.000000,,2013-12-17 16:33:00,
2013-12-17 08:43:00,17.0,16.0,-100.00,North,-999,0.0,0.0,97,0.00,,,0.00,11.000000,,2013-12-17 16:43:00,
2013-12-17 13:11:00,37.0,24.0,-100.00,North,-999,0.0,3.0,60,-99.99,,,0.00,360.000000,,2013-12-17 21:11:00,
2013-12-17 14:12:00,35.0,23.0,-100.00,ENE,62,3.0,5.0,62,-99.99,,,0.00,342.000000,,2013-12-17 22:12:00,
2013-12-17 14:23:00,35.0,23.0,-100.00,ENE,62,3.0,5.0,62,-99.99,,,0.00,342.000000,,2013-12-17 22:23:00,
2013-12-17 14:34:00,35.0,23.0,-100.00,ENE,62,3.0,5.0,62,-99.99,,,0.00,342.000000,,2013-12-17 22:34:00,
2013-12-17 14:42:00,35.0,23.0,-100.00,ENE,62,3.0,5.0,62,-99.99,,,0.00,342.000000,,2013-12-17 22:42:00,
2013-12-17 15:11:00,32.0,23.0,-100.00,SSE,154,2.0,4.0,69,0.00,,,0.00,239.000000,,2013-12-17 23:11:00,
2013-12-17 15:22:00,32.0,23.0,-100.00,SSE,154,2.0,4.0,69,0.00,,,0.00,239.000000,,2013-12-17 23:22:00,
2013-12-17 15:33:00,32.0,23.0,-100.00,SSE,154,2.0,4.0,69,0.00,,,0.00,239.000000,,2013-12-17 23:33:00,
2013-12-17 15:42:00,32.0,23.0,-100.00,SSE,154,2.0,4.0,69,0.00,,,0.00,239.000000,,2013-12-17 23:42:00,
2013-12-17 16:12:00,31.0,23.0,-100.00,North,-999,0.0,5.0,72,0.00,,,0.00,101.000000,,2013-12-18 00:12:00,
2013-12-17 16:22:00,31.0,23.0,-100.00,North,-999,0.0,5.0,72,0.00,,,0.00,101.000000,,2013-12-18 00:22:00,
2013-12-17 16:32:00,31.0,23.0,-100.00,North,-999,0.0,5.0,72,0.00,,,0.00,101.000000,,2013-12-18 00:32:00,
2013-12-17 16:42:00,31.0,23.0,-100.00,North,-999,0.0,5.0,72,0.00,,,0.00,101.000000,,2013-12-18 00:42:00,
2013-12-17 17:11:00,28.0,24.0,-100.00,North,-999,0.0,2.0,84,0.00,,,0.00,20.000000,,2013-12-18 01:11:00,
2013-12-17 17:22:00,28.0,24.0,-100.00,North,-999,0.0,2.0,84,0.00,,,0.00,20.000000,,2013-12-18 01:22:00,
2013-12-17 17:32:00,28.0,24.0,-100.00,North,-999,0.0,2.0,84,0.00,,,0.00,20.000000,,2013-12-18 01:32:00,
2013-12-17 17:42:00,28.0,24.0,-100.00,North,-999,0.0,2.0,84,0.00,,,0.00,20.000000,,2013-12-18 01:42:00,
2013-12-17 18:11:00,26.0,24.0,-100.00,North,-999,0.0,0.0,91,0.00,,,0.00,0.000000,,2013-12-18 02:11:00,
2013-12-17 18:21:00,26.0,24.0,-100.00,North,-999,0.0,0.0,91,0.00,,,0.00,0.000000,,2013-12-18 02:21:00,
2013-12-17 18:32:00,26.0,24.0,-100.00,North,-999,0.0,0.0,91,0.00,,,0.00,0.000000,,2013-12-18 02:32:00,
2013-12-17 18:42:00,26.0,24.0,-100.00,North,-999,0.0,0.0,91,0.00,,,0.00,0.000000,,2013-12-18 02:42:00,
2013-12-17 19:11:00,25.0,24.0,-100.00,North,-999,0.0,0.0,94,0.00,,,0.00,0.000000,,2013-12-18 03:11:00,
2013-12-17 19:22:00,25.0,24.0,-100.00,North,-999,0.0,0.0,94,0.00,,,0.00,0.000000,,2013-12-18 03:22:00,
2013-12-17 19:33:00,25.0,24.0,-100.00,North,-999,0.0,0.0,94,0.00,,,0.00,0.000000,,2013-12-18 03:33:00,
2013-12-17 19:43:00,25.0,24.0,-100.00,North,-999,0.0,0.0,94,0.00,,,0.00,0.000000,,2013-12-18 03:43:00,
2013-12-17 20:13:00,26.0,25.0,-100.00,North,-999,0.0,4.0,97,0.00,,,0.00,0.000000,,2013-12-18 04:13:00,
2013-12-17 20:23:00,26.0,25.0,-100.00,North,-999,0.0,4.0,97,0.00,,,0.00,0.000000,,2013-12-18 04:23:00,
2013-12-17 20:33:00,26.0,25.0,-100.00,North,-999,0.0,4.0,97,0.00,,,0.00,0.000000,,2013-12-18 04:33:00,
2013-12-17 20:43:00,26.0,25.0,-100.00,North,-999,0.0,4.0,97,0.00,,,0.00,0.000000,,2013-12-18 04:43:00,
2013-12-17 22:12:00,25.0,25.0,-100.00,North,-999,0.0,5.0,98,-99.99,,,0.00,0.000000,,2013-12-18 06:12:00,
2013-12-17 22:22:00,25.0,25.0,-100.00,North,-999,0.0,5.0,98,-99.99,,,0.00,0.000000,,2013-12-18 06:22:00,
2013-12-17 22:32:00,25.0,25.0,-100.00,North,-999,0.0,5.0,98,-99.99,,,0.00,0.000000,,2013-12-18 06:32:00,
2013-12-17 22:42:00,25.0,25.0,-100.00,North,-999,0.0,5.0,98,-99.99,,,0.00,0.000000,,2013-12-18 06:42:00,
2013-12-17 23:22:00,24.0,23.0,-100.00,North,-999,0.0,4.0,94,0.00,,,0.00,0.000000,,2013-12-18 07:22:00,
2013-12-17 23:32:00,24.0,23.0,-100.00,North,-999,0.0,4.0,94,0.00,,,0.00,0.000000,,2013-12-18 07:32:00,
2013-12-17 23:42:00,24.0,23.0,-100.00,North,-999,0.0,4.0,94,0.00,,,0.00,0.000000,,2013-12-18 07:42:00,